When you browse on this site, cookies collect data to enhance your experience and personalize the content and advertising you see.
Visit our Privacy Policy to learn more. By continuing to use the site, you agree to this use of cookies and data.
  • în România
  • Lista ţărilor
  • Pe 7 zile
  • Temperatura apei
  • Hartă satelitară
  • Meteo pe hartă
  • Widget-uri
  • user-avatar
    Intrare

    Meteo pe oră la Sarcelles

    Astăzi, 20 Iunie, Joi

    Timp Temperatura Precipitaţii Vânt Presiune Umiditate
    00:00 +18°C° 0 mm 1 m/s 752 mmHg 81%
    01:00 +16°C° 0.1 mm 1 m/s 752 mmHg 82%
    02:00 +16°C° 0.1 mm 1 m/s 752 mmHg 83%
    03:00 +16°C° 0.1 mm 1 m/s 752 mmHg 84%
    04:00 +16°C° 0 mm 1 m/s 753 mmHg 85%
    05:00 +16°C° 0 mm 2 m/s 753 mmHg 85%
    06:00 +16°C° 0 mm 3 m/s 753 mmHg 88%
    07:00 +16°C° 0.1 mm 3 m/s 754 mmHg 86%
    08:00 +16°C° 0.1 mm 3 m/s 754 mmHg 84%
    09:00 +16°C° 0.1 mm 3 m/s 754 mmHg 83%
    10:00 +18°C° 0 mm 3 m/s 754 mmHg 74%
    11:00 +20°C° 0 mm 3 m/s 755 mmHg 65%
    12:00 +21°C° 0 mm 4 m/s 755 mmHg 55%
    13:00 +21°C° 0 mm 4 m/s 755 mmHg 53%
    14:00 +21°C° 0 mm 4 m/s 755 mmHg 51%
    15:00 +22°C° 0 mm 4 m/s 755 mmHg 50%
    16:00 +21°C° 0 mm 4 m/s 755 mmHg 52%
    17:00 +20°C° 0 mm 3 m/s 755 mmHg 55%
    18:00 +20°C° 0 mm 3 m/s 755 mmHg 57%
    19:00 +18°C° 0 mm 3 m/s 756 mmHg 62%
    20:00 +17°C° 0 mm 2 m/s 756 mmHg 68%
    21:00 +16°C° 0 mm 2 m/s 756 mmHg 73%
    22:00 +15°C° 0 mm 2 m/s 757 mmHg 75%
    23:00 +15°C° 0 mm 1 m/s 757 mmHg 77%

    Mâine, 21 Iunie, Vineri

    Timp Temperatura Precipitaţii Vânt Presiune Umiditate
    00:00 +14°C° 0 mm 1 m/s 757 mmHg 79%
    01:00 +13°C° 0 mm 1 m/s 757 mmHg 80%
    02:00 +13°C° 0 mm 1 m/s 757 mmHg 81%
    03:00 +13°C° 0 mm 1 m/s 757 mmHg 81%
    04:00 +13°C° 0 mm 1 m/s 758 mmHg 79%
    05:00 +14°C° 0 mm 1 m/s 758 mmHg 77%
    06:00 +15°C° 0 mm 1 m/s 758 mmHg 75%
    07:00 +16°C° 0 mm 1 m/s 758 mmHg 68%
    08:00 +19°C° 0 mm 1 m/s 759 mmHg 60%
    09:00 +19°C° 0 mm 2 m/s 759 mmHg 53%
    10:00 +20°C° 0 mm 2 m/s 759 mmHg 50%
    11:00 +21°C° 0 mm 2 m/s 759 mmHg 47%
    12:00 +23°C° 0 mm 2 m/s 759 mmHg 44%
    13:00 +22°C° 0 mm 3 m/s 759 mmHg 46%
    14:00 +22°C° 0 mm 3 m/s 758 mmHg 48%
    15:00 +22°C° 0 mm 4 m/s 758 mmHg 50%
    16:00 +21°C° 0 mm 4 m/s 758 mmHg 54%
    17:00 +20°C° 0 mm 4 m/s 758 mmHg 58%
    18:00 +19°C° 0 mm 4 m/s 758 mmHg 62%
    19:00 +18°C° 0 mm 4 m/s 759 mmHg 66%
    20:00 +16°C° 0 mm 3 m/s 759 mmHg 70%
    21:00 +14°C° 0 mm 3 m/s 759 mmHg 75%
    22:00 +13°C° 0 mm 3 m/s 759 mmHg 75%
    23:00 +12°C° 0 mm 3 m/s 759 mmHg 76%

    Poimâine, 22 Iunie, Sâmbătă

    Timp Temperatura Precipitaţii Vânt Presiune Umiditate
    00:00 +12°C° 0 mm 3 m/s 759 mmHg 77%
    01:00 +12°C° 0 mm 2 m/s 759 mmHg 78%
    02:00 +12°C° 0 mm 2 m/s 759 mmHg 80%
    03:00 +12°C° 0 mm 2 m/s 758 mmHg 81%
    04:00 +12°C° 0 mm 2 m/s 758 mmHg 79%
    05:00 +12°C° 0 mm 3 m/s 758 mmHg 77%
    06:00 +12°C° 0 mm 3 m/s 758 mmHg 75%
    07:00 +16°C° 0 mm 3 m/s 758 mmHg 70%
    08:00 +18°C° 0 mm 3 m/s 758 mmHg 65%
    09:00 +20°C° 0 mm 3 m/s 758 mmHg 61%
    10:00 +21°C° 0 mm 3 m/s 758 mmHg 57%
    11:00 +22°C° 0 mm 3 m/s 758 mmHg 53%
    12:00 +25°C° 0 mm 3 m/s 757 mmHg 49%
    13:00 +25°C° 0 mm 3 m/s 757 mmHg 50%
    14:00 +25°C° 0 mm 3 m/s 757 mmHg 51%
    15:00 +26°C° 0 mm 3 m/s 756 mmHg 51%
    16:00 +25°C° 0 mm 3 m/s 756 mmHg 55%
    17:00 +25°C° 0 mm 3 m/s 756 mmHg 59%
    18:00 +24°C° 0 mm 3 m/s 756 mmHg 63%
    19:00 +23°C° 0 mm 2 m/s 756 mmHg 68%
    20:00 +21°C° 0 mm 2 m/s 756 mmHg 73%
    21:00 +20°C° 0 mm 2 m/s 756 mmHg 78%
    22:00 +19°C° 0 mm 2 m/s 756 mmHg 80%
    23:00 +19°C° 0 mm 2 m/s 756 mmHg 82%

    23 Iunie, Duminică

    Timp Temperatura Precipitaţii Vânt Presiune Umiditate
    00:00 +18°C° 0 mm 2 m/s 756 mmHg 84%
    01:00 +18°C° 0 mm 2 m/s 756 mmHg 85%
    02:00 +18°C° 0 mm 2 m/s 755 mmHg 86%
    03:00 +17°C° 0 mm 2 m/s 755 mmHg 87%
    04:00 +18°C° 0 mm 2 m/s 755 mmHg 86%
    05:00 +18°C° 0 mm 2 m/s 755 mmHg 85%
    06:00 +19°C° 0 mm 2 m/s 755 mmHg 83%
    07:00 +20°C° 0 mm 3 m/s 755 mmHg 78%
    08:00 +22°C° 0 mm 3 m/s 756 mmHg 72%
    09:00 +23°C° 0 mm 4 m/s 756 mmHg 66%
    10:00 +25°C° 0 mm 4 m/s 755 mmHg 62%
    11:00 +27°C° 0 mm 4 m/s 755 mmHg 58%
    12:00 +28°C° 0 mm 4 m/s 755 mmHg 54%
    13:00 +28°C° 0 mm 4 m/s 755 mmHg 55%
    14:00 +28°C° 0 mm 4 m/s 755 mmHg 56%
    15:00 +28°C° 0 mm 4 m/s 754 mmHg 57%
    16:00 +28°C° 0 mm 4 m/s 754 mmHg 60%
    17:00 +28°C° 0 mm 4 m/s 754 mmHg 63%
    18:00 +27°C° 0 mm 3 m/s 754 mmHg 66%
    19:00 +26°C° 0 mm 3 m/s 754 mmHg 71%
    20:00 +25°C° 0 mm 3 m/s 755 mmHg 76%
    21:00 +24°C° 0 mm 2 m/s 755 mmHg 81%
    22:00 +23°C° 0 mm 2 m/s 755 mmHg 83%
    23:00 +23°C° 0 mm 2 m/s 755 mmHg 84%

    24 Iunie, Luni

    Timp Temperatura Precipitaţii Vânt Presiune Umiditate
    00:00 +21°C° 0 mm 3 m/s 755 mmHg 86%
    01:00 +21°C° 0 mm 2 m/s 755 mmHg 86%
    02:00 +20°C° 0 mm 2 m/s 755 mmHg 86%
    03:00 +20°C° 0 mm 2 m/s 755 mmHg 87%
    04:00 +22°C° 0 mm 1 m/s 755 mmHg 84%
    05:00 +22°C° 0 mm 1 m/s 755 mmHg 81%
    06:00 +23°C° 0 mm 1 m/s 755 mmHg 78%
    07:00 +25°C° 0.1 mm 1 m/s 756 mmHg 71%
    08:00 +26°C° 0.1 mm 1 m/s 756 mmHg 64%
    09:00 +28°C° 0.1 mm 1 m/s 756 mmHg 56%
    10:00 +30°C° 0 mm 2 m/s 756 mmHg 53%
    11:00 +31°C° 0 mm 3 m/s 756 mmHg 50%
    12:00 +33°C° 0 mm 3 m/s 756 mmHg 47%
    13:00 +33°C° 0 mm 3 m/s 756 mmHg 48%
    14:00 +34°C° 0 mm 4 m/s 756 mmHg 49%
    15:00 +34°C° 0 mm 4 m/s 756 mmHg 49%
    16:00 +33°C° 0 mm 4 m/s 756 mmHg 54%
    17:00 +31°C° 0 mm 3 m/s 756 mmHg 58%
    18:00 +30°C° 0 mm 3 m/s 756 mmHg 63%
    19:00 +29°C° 0 mm 3 m/s 756 mmHg 69%
    20:00 +28°C° 0 mm 3 m/s 756 mmHg 75%
    21:00 +27°C° 0 mm 3 m/s 756 mmHg 81%
    22:00 +26°C° 0 mm 3 m/s 756 mmHg 82%
    23:00 +25°C° 0 mm 3 m/s 756 mmHg 82%

    25 Iunie, Marţi

    Timp Temperatura Precipitaţii Vânt Presiune Umiditate
    00:00 +25°C° 0 mm 3 m/s 756 mmHg 82%
    01:00 +24°C° 0 mm 3 m/s 755 mmHg 82%
    02:00 +24°C° 0 mm 2 m/s 755 mmHg 83%
    03:00 +23°C° 0 mm 2 m/s 755 mmHg 83%
    04:00 +24°C° 0 mm 3 m/s 755 mmHg 80%
    05:00 +24°C° 0 mm 3 m/s 755 mmHg 77%
    06:00 +25°C° 0 mm 3 m/s 755 mmHg 74%
    07:00 +26°C° 0 mm 3 m/s 755 mmHg 69%
    08:00 +28°C° 0 mm 3 m/s 755 mmHg 64%
    09:00 +30°C° 0 mm 3 m/s 755 mmHg 59%
    10:00 +31°C° 0 mm 3 m/s 755 mmHg 54%
    11:00 +33°C° 0 mm 3 m/s 756 mmHg 50%
    12:00 +35°C° 0 mm 3 m/s 756 mmHg 45%
    13:00 +35°C° 0 mm 3 m/s 756 mmHg 44%
    14:00 +36°C° 0 mm 3 m/s 756 mmHg 42%
    15:00 +36°C° 0 mm 3 m/s 756 mmHg 41%
    16:00 +35°C° 0 mm 3 m/s 756 mmHg 44%
    17:00 +35°C° 0 mm 2 m/s 756 mmHg 47%
    18:00 +34°C° 0 mm 2 m/s 757 mmHg 50%
    19:00 +31°C° 0 mm 2 m/s 757 mmHg 55%
    20:00 +29°C° 0 mm 1 m/s 757 mmHg 60%
    21:00 +28°C° 0 mm 1 m/s 758 mmHg 64%
    22:00 +27°C° 0 mm 1 m/s 758 mmHg 67%
    23:00 +26°C° 0 mm 1 m/s 758 mmHg 69%
    Arată mai mult